METEOR 2-7 DEB

Satellite information

Favourite Embed

Satellite Type and Status

DEBRISIN ORBIT

Key statistics

Satellite METEOR 2-7 DEB at a glance.

Uptime

16185

Days in orbit

Revolutions

≈ 14.5

Per day

Orbit

LEO

Low Earth Orbit

Inclination

81.2

Latest

Satellite identification and parameters

Extended collection of information and parameters for METEOR 2-7 DEB.

Object identification

Identified? True

Debris? True

Object name: METEOR 2-7 DEB

International designator: 1981-043R

Object number (NORAD): 36878

Object ID (CCSDS): 36878

Country: COMMONWEALTH OF INDEPENDENT STATES (CIS)

Current information (Y/N): Y

RCS size: SMALL

Orbital parameters

Period: 99.371 minutes

Inclination: 81.2497 deg

SMA: 7106.684 km

Apoapsis: 744.847 km

Periapsis: 712.251 km

RAAN: 267.4881 deg

Eccentricy: 0.00229338

Argument of periapsis: 299.7626 deg

Mean anomaly: 237.9155 deg

Mean motion: 14.49113034 rev/day

Mean motion (dot): 0.00019066 rev/day2

B* drag term: 0.0049865971 1/REarth

Two-line elements (TLE)

Creation date: Sept. 3, 2025, 2:21 a.m.

Reference frame: TEME

Reference center: EARTH

Epoch: Sept. 2, 2025, 8:16 p.m. UTC

TLE line 0: 0 METEOR 2-7 DEB

TLE line 1: 1 36878U 81043R 25245.84484919 .00019066 00000-0 49866-2 0 9990

TLE line 2: 2 36878 81.2497 267.4881 0022934 299.7626 237.9155 14.49113034629472

Live tracking on map

Real-time ground track for satellite METEOR 2-7 DEB.

In-orbit conjunctions

A list of the most updated potential collisions computed for object METEOR 2-7 DEB.

Target Orbit TCA Probability of collision Miss distance Type
NOAA 16 DEB SSO 2025-09-01 08:16:45 0.000121666 112.0 (m) DEBRIS
PICOSAT 6 SSO 2025-02-08 00:56:57 0.0002257985 261.0 (m) PAYLOAD
SCOUT G-1 DEB LEO 2024-09-25 08:26:48 0.0006786823 660.0 (m) DEBRIS

Associated space launch

Second generation soviet meteorological satellite

METEOR 2-7 DEB was lifted into orbit during the mission ‘Vostok 8A92M | Meteor-2 7’, on board a Vostok 8A92M space rocket.

The launch took place on May 14, 1981, 9:45 p.m. from 43/3 (43L).

For more information about the launch, click the button.

Launch to space Vostok 8A92M | Meteor-2 7
Vostok 8A92M | Meteor-2 7

Agency: N/A

Status: Launch Successful

Launch date: May 14, 1981, 9:45 p.m. UTC

Rocket: Vostok 8A92M

Launch pad: 43/3 (43L)

Location: Plesetsk Cosmodrome, Russian Federation

...

Latest news about this satellite

There are no fresh news available about this satellite. Check back as we update our databases every day.


Newsletter sign-up

Weekly statistics, charts and insights to help you stay on top of the space industry.